This demonstration page uses our WeatherBlox Daily Observations layout. Learn more.

Left ArrowRight Arrow

30.00354, -91.81873

Hourly Observations for July 20, 2022

Temp ( °F °C ) Dew Point ( °F °C ) Humidity (%) Winds ( mph kmh ) Pressure ( in mb ) Visibility ( mi km ) Precip ( " mm )
12:53 am 00:53 Clear 77 25 75 23.9 94 94 SSW 5 7 29.97 1015 10 16 0.00 0.00
1:53 am 01:53 Mostly Clear 80 26.7 75 23.9 85 85 SSW 6 9 29.96 1014 10 16 0.00 0.00
2:53 am 02:53 Clear 80 26.7 76 24.4 87 87 SW 5 7 29.95 1014 10 16 0.00 0.00
3:53 am 03:53 Clear 79 26.1 76 24.4 90 90 Calm 29.95 1014 10 16 0.00 0.00
4:53 am 04:53 Clear 79 26.1 75 23.9 88 88 SSW 3 6 29.96 1015 10 16 0.00 0.00
5:53 am 05:53 Clear 78 25.6 75 23.9 90 90 SSW 5 7 29.97 1015 10 16 0.00 0.00
6:53 am 06:53 Sunny 78 25.6 76 24.4 93 93 Calm 29.98 1015 9 14 0.00 0.00
7:53 am 07:53 Sunny 82 27.8 77 25 85 85 SW 6 9 29.99 1016 10 16 0.00 0.00
8:53 am 08:53 Mostly Sunny 86 30 76 24.4 72 72 SW 9 15 30.01 1016 10 16 0.00 0.00
9:53 am 09:53 Partly Cloudy 89 31.7 76 24.4 65 65 undefined N/A 30.00 1016 10 16 0.00 0.00
10:53 am 10:53 Mostly Sunny 92 33.3 76 24.4 60 60 undefined N/A 30.00 1016 10 16 0.00 0.00
11:53 am 11:53 Partly Cloudy 94 34.4 75 23.9 54 54 SSW 12 19 29.99 1016 10 16 0.00 0.00
12:53 pm 12:53 Mostly Cloudy 91 32.8 75 23.9 59 59 SW 12 19 29.98 1015 10 16 0.00 0.00
1:53 pm 13:53 Mostly Sunny 95 35 74 23.3 51 51 WSW 10 17 29.96 1015 10 16 0.00 0.00
2:53 pm 14:53 Partly Cloudy 95 35 73 22.8 49 49 SW 12 19 29.94 1014 10 16 0.00 0.00
3:53 pm 15:53 Mostly Sunny 95 35 74 23.3 51 51 WSW 13 20 29.93 1013 10 16 0.00 0.00
4:53 pm 16:53 Mostly Sunny 94 34.4 74 23.3 52 52 WSW 13 20 29.92 1013 10 16 0.00 0.00
5:53 pm 17:53 Mostly Cloudy 93 33.9 75 23.9 56 56 SW 14 22 29.91 1013 10 16 0.00 0.00
6:53 pm 18:53 Sunny 89 31.7 75 23.9 63 63 SW 12 19 29.91 1013 10 16 0.00 0.00
7:53 pm 19:53 Sunny 86 30 76 24.4 72 72 SSW 9 15 29.92 1013 10 16 0.00 0.00
8:53 pm 20:53 Clear 84 28.9 76 24.4 77 77 SW 7 11 29.92 1013 10 16 0.00 0.00
9:53 pm 21:53 Clear 81 27.2 76 24.4 85 85 SW 3 6 29.95 1014 10 16 0.00 0.00
10:53 pm 22:53 Clear 80 26.7 76 24.4 87 87 SSW 5 7 29.94 1014 10 16 0.00 0.00
11:53 pm 23:53 Clear 81 27.2 77 25 88 88 W 3 6 29.95 1014 10 16 0.00 0.00

Powered by AerisWeather